Flag for U.S.A. Weather past 2 weeks in Raleigh, North Carolina, U.S.A.

58 °F

Partly sunny.

Feels Like: 58 °F
Forecast: 44 / 71 °F
Wind: 5 mph from Southwest

Location: Raleigh-Durham International Airport

Current Time: Nov 28, 2015 at 10:48:33 AM

Latest Report: Nov 28, 2015 at 9:51 AM

Visibility: 10 mi

Pressure: 30.29 "Hg

Humidity: 84%

Dew point: 53 °F

Location of RaleighLocation

Historic Weather in Raleigh — Graph


Raleigh temperature yesterday

Maximum temperature yesterday: 70 °F (at 2:51 PM)
Minimum temperature yesterday: 44 °F (at 5:51 AM)
Average temperature yesterday: 55 °F

Past Weeks' High & Low Weather Summary

High72 °F (Nov 18, 12:51 PM)97% (Nov 18, 4:51 AM)30.75 "Hg (Nov 18, 4:51 AM)
Low28 °F (Nov 24, 4:51 AM)20% (Nov 13, 2:51 PM)29.91 "Hg (Nov 22, 3:51 AM)
Average50 °F67%30.29 "Hg
* Reported Nov 13 9:51 AM — Nov 28 9:51 AM, Raleigh, Weather by CustomWeather, © 2015

Note: Actual official high and low records may vary slightly from our data, if they occured in-between our weather recording intervals... More about our weather records


Raleigh weather history for previous 24 hours

Time TempWeatherWind HumidityBarometerVisibility
9:51 AM
Sat, Nov 28
58 °FPartly sunny.5 mph84%30.29 "Hg10 mi
8:51 AM52 °FPartly sunny.No wind89%30.29 "Hg10 mi
7:51 AM46 °FPartly sunny.No wind93%30.28 "Hg10 mi
6:51 AM46 °FPassing clouds.No wind96%30.29 "Hg10 mi
5:51 AM46 °FFog.No wind96%30.29 "Hg4 mi
4:51 AM47 °FPassing clouds.No wind93%30.28 "Hg10 mi
3:51 AM46 °FPassing clouds.No wind96%30.29 "Hg10 mi
2:51 AM46 °FFog.No wind96%30.30 "Hg4 mi
1:51 AM47 °FPartly cloudy.No wind93%30.31 "Hg10 mi
12:51 AM48 °FFog.No wind96%30.32 "Hg4 mi
11:51 PM
Fri, Nov 27
49 °FFog.No wind97%30.34 "Hg6 mi
10:51 PM51 °FPassing clouds.No wind89%30.35 "Hg10 mi
9:51 PM51 °FPassing clouds.No wind92%30.37 "Hg10 mi
8:51 PM52 °FPassing clouds.No wind93%30.38 "Hg10 mi
7:51 PM54 °FPassing clouds.No wind93%30.38 "Hg10 mi
6:51 PM56 °FPassing clouds.No wind87%30.37 "Hg10 mi
5:51 PM58 °FPassing clouds.No wind81%30.37 "Hg10 mi
4:51 PM63 °FPartly sunny.No wind70%30.38 "Hg10 mi
3:51 PM68 °FPartly sunny.3 mph57%30.38 "Hg10 mi
2:51 PM70 °FPartly sunny.No wind51%30.41 "Hg10 mi
1:51 PM69 °FPartly sunny.No wind55%30.44 "Hg10 mi
12:51 PM69 °FPartly sunny.3 mph57%30.47 "Hg10 mi
11:51 AM66 °FPartly sunny.3 mph65%30.50 "Hg10 mi
10:51 AM61 °FPartly sunny.No wind75%30.54 "Hg10 mi
Weather by CustomWeather, © 2015

See weather overviewHow to use our weather pages